2105,1,94.8,26.7,94.8,26.9,03-May-2021,11:38:29,32.69737,-117.15630,CTD,CTD DEPLOYED,DGS,03-May-2021,19:35:28,,0
2105,2,93.3,26.7,93.3,26.7,04-May-2021,11:19:07,32.95330,-117.30430,CTD,CTD AT DEPTH,DGS,04-May-2021,18:18:18,,0
2105,3,93.3,28.0,93.3,28.0,04-May-2021,14:03:21,32.91061,-117.39480,CTD,CTD AT DEPTH,DGS,04-May-2021,21:02:28,,0
2105,4,93.3,30.0,93.3,30.0,04-May-2021,16:28:42,32.84818,-117.53080,CTD,CTD AT DEPTH,DGS,04-May-2021,23:27:58,,0
2105,5,93.3,35.0,93.3,35.0,04-May-2021,20:10:26,32.68147,-117.87190,CTD,CTD AT DEPTH,DGS,05-May-2021,03:09:36,,0
2105,6,93.3,40.0,93.3,40.0,04-May-2021,23:56:46,32.51420,-118.21460,CTD,CTD AT DEPTH,DGS,05-May-2021,06:55:59,,0
2105,7,93.3,45.0,93.3,45.0,05-May-2021,03:30:46,32.34943,-118.55460,CTD,CTD AT DEPTH,DGS,05-May-2021,10:30:05,,0
2105,8,93.3,50.0,93.3,50.0,05-May-2021,07:27:35,32.17942,-118.89410,CTD,CTD AT DEPTH,DGS,05-May-2021,14:26:48,,0
2105,9,93.3,55.0,93.3,55.0,05-May-2021,11:15:35,32.01328,-119.23230,CTD,CTD AT DEPTH,DGS,05-May-2021,18:14:50,,0
2105,10,93.3,60.0  ,93.3,55.0,05-May-2021,15:02:51,32.01140,-119.22920,CTD,CTD AT DEPTH,DGS,05-May-2021,18:41:35,,0
2105,11,93.3,55.0,93.3,55.0,05-May-2021,20:44:12,32.01140,-119.22920,CTD,CTD AT DEPTH,DGS,05-May-2021,18:41:35,,0
2105,12,93.3,55.0,93.3,55.0,05-May-2021,20:45:06,32.01140,-119.22920,CTD,CTD AT DEPTH,DGS,05-May-2021,18:41:35,,0
2105,13,93.3,70.0  ,93.3,55.0,05-May-2021,20:45:16,32.01140,-119.22920,CTD,CTD AT DEPTH,DGS,05-May-2021,18:41:35,,0
2105,14,93.3,55.0,93.3,55.0,06-May-2021,02:10:43,32.01140,-119.22920,CTD,CTD AT DEPTH,DGS,05-May-2021,18:41:35,,0
2105,15,93.3,55.0,93.3,55.0,06-May-2021,02:12:07,32.01140,-119.22920,CTD,CTD AT DEPTH,DGS,05-May-2021,18:41:35,,0
2105,16,93.3,55.0,93.3,55.0,06-May-2021,07:33:44,32.01140,-119.22920,CTD,CTD AT DEPTH,DGS,05-May-2021,18:41:35,,0
2105,17,93.3,100.0,93.3,100.0,06-May-2021,13:06:22,30.51354,-122.25850,CTD,CTD AT DEPTH,DGS,06-May-2021,20:05:36,,0
2105,18,90.0,100.0,90.0,100.0,06-May-2021,18:37:46,31.08384,-122.66520,CTD,CTD AT DEPTH,DGS,07-May-2021,01:36:58,,0
2105,19,90.0,90.0,90.0,90.1,07-May-2021,00:35:16,31.41479,-121.99630,CTD,CTD AT DEPTH,DGS,07-May-2021,07:34:27,,0
2105,20,90.0,80.0,90.0,80.0,07-May-2021,07:24:49,31.75120,-121.31580,CTD,CTD AT DEPTH,DGS,07-May-2021,14:24:06,,0
2105,21,90.0,70.0,90.0,70.1,07-May-2021,13:25:04,32.08043,-120.64140,CTD,CTD AT DEPTH,DGS,07-May-2021,20:24:19,,0
2105,22,90.0,60.0,90.0,60.2,07-May-2021,20:53:18,32.40982,-119.96810,CTD,CTD AT DEPTH,DGS,08-May-2021,03:52:31,,0
2105,23,90.0,53.0,90.0,53.0,08-May-2021,03:02:02,32.64779,-119.48430,CTD,CTD AT DEPTH,DGS,08-May-2021,10:01:18,,0
2105,24,90.0,45.0,90.0,45.0,08-May-2021,09:08:56,32.91704,-118.93540,CTD,CTD AT DEPTH,DGS,08-May-2021,16:08:11,,0
2105,25,90.0,37.0,90.0,37.1,08-May-2021,14:07:35,33.18436,-118.39220,CTD,CTD AT DEPTH,DGS,08-May-2021,21:06:48,,0
2105,26,90.0,35.0,90.0,35.0,08-May-2021,17:34:03,-99.00000,-099.00000,CTD,CTD AT DEPTH,DGS,09-May-2021,00:33:09,,0
2105,27,90.0,35.0,90.0,35.0,08-May-2021,21:18:50,33.25317,-118.25100,CTD,CTD AT DEPTH,DGS,09-May-2021,00:48:30,,0
2105,28,90.0,35.0,90.0,35.0,09-May-2021,00:10:07,33.25317,-118.25100,CTD,CTD AT DEPTH,DGS,09-May-2021,00:48:30,,0
2105,29,88.7,33.0,88.7,33.3,09-May-2021,03:57:44,33.53030,-118.28370,STATION,STATION ARRIVAL,DGS,09-May-2021,10:56:04,;10:56:04 09-May-2021;,1</TABLE>
2105,30,93.3,26.7,,,09-May-2021,08:50:32,,,CTD,CTD AT DEPTH,DGS,,,,1
2105,31,86.7,33.0,86.7,33.0,09-May-2021,08:50:41,33.88871,-118.48900,CTD,CTD AT DEPTH,DGS,09-May-2021,15:49:52,,1
2105,32,86.7,35.0,86.7,34.9,09-May-2021,11:06:52,33.82629,-118.62430,CTD,CTD AT DEPTH,DGS,09-May-2021,18:05:59,,1
2105,33,86.7,40.0,86.7,39.9,09-May-2021,15:48:11,33.65820,-118.96720,CTD,CTD AT DEPTH,DGS,09-May-2021,22:47:24,,1
2105,34,86.7,45.0,86.7,45.0,09-May-2021,19:32:36,33.49004,-119.32330,CTD,CTD AT DEPTH,DGS,10-May-2021,02:31:48,,1
2105,35,86.7,50.0,86.7,50.1,09-May-2021,23:10:37,33.31789,-119.66500,CTD,CTD AT DEPTH,DGS,10-May-2021,06:09:54,,1
2105,36,86.7,55.0,86.7,55.1,10-May-2021,02:20:53,33.15139,-120.01070,CTD,CTD AT DEPTH,DGS,10-May-2021,09:20:08,,1
2105,37,86.7,60.0,86.7,60.0,10-May-2021,06:21:40,32.98841,-120.34810,CTD,CTD AT DEPTH,DGS,10-May-2021,13:20:54,,1
2105,38,86.7,70.0,86.7,70.0,10-May-2021,14:38:07,32.66213,-121.03390,CTD,CTD AT DEPTH,DGS,10-May-2021,21:37:23,,1
2105,39,86.7,70.0,86.7,70.0,11-May-2021,10:42:42,32.66011,-121.03520,CTD,CTD AT DEPTH,DGS,10-May-2021,21:58:46,,1
2105,40,80.0,90.0,80.0,90.0,11-May-2021,16:31:59,33.14918,-123.22190,CTD,CTD AT DEPTH,DGS,11-May-2021,23:31:10,,1
2105,41,80.0,80.0,80.0,80.2,11-May-2021,22:26:11,33.47680,-122.54330,CTD,CTD AT DEPTH,DGS,12-May-2021,05:25:22,,1
2105,42,80.0,70.0,80.0,70.0,12-May-2021,04:02:56,33.81623,-121.84090,CTD,CTD AT DEPTH,DGS,12-May-2021,11:02:07,,1
2105,43,80.0,60.0,80.0,60.0,12-May-2021,09:36:50,34.15007,-121.14980,CTD,CTD AT DEPTH,DGS,12-May-2021,16:36:07,,1
2105,44,80.0,55.0,80.0,55.0,12-May-2021,13:36:06,34.32459,-120.80530,CTD,CTD AT DEPTH,DGS,12-May-2021,20:35:14,,1
2105,45,80.0,51.0,80.0,51.0,12-May-2021,17:24:16,34.45160,-120.52330,CTD,CTD AT DEPTH,DGS,13-May-2021,00:23:30,,1
2105,46,81.8,46.9,81.8,46.9,12-May-2021,21:20:23,34.27554,-120.02970,CTD,CTD AT DEPTH,DGS,13-May-2021,04:19:31,,1
2105,47,83.3,40.6,83.3,40.6,13-May-2021,02:19:12,34.22416,-119.41320,CTD,CTD AT DEPTH,DGS,13-May-2021,09:18:24,,1
2105,48,83.3,42.0,83.3,42.0,13-May-2021,03:58:56,34.18145,-119.51040,CTD,CTD AT DEPTH,DGS,13-May-2021,10:58:04,,1
2105,49,83.3,51.0,83.3,51.0,13-May-2021,10:39:43,33.87869,-120.13230,CTD,CTD AT DEPTH,DGS,13-May-2021,17:39:03,,1
2105,50,83.3,55.0,83.3,55.1,13-May-2021,13:37:57,33.74204,-120.41190,CTD,CTD AT DEPTH,DGS,13-May-2021,20:37:15,,1
